NKS526B KSLC-KDEN

Flight info

Callsign NKS526B
Flight time N/A
Altitude 39000
Route RUGGD3 PERTY KAMPR LONGZ3
Aircraft A21N/M-SDE3FGHIRWY/LB1

Departure

Time 2026-05-07 04:49
Airport Salt Lake City International Airport (KSLC)

Arrival

Time N/A
Airport Denver International Airport (KDEN)
Time Latitude Longitude Altitude Speed Heading
2026-05-07 03:56 40.79079 -111.98740 4226 ft 0 kts 356°
2026-05-07 04:31 40.79076 -111.98740 4226 ft 1 kts 356°
2026-05-07 04:32 40.79062 -111.98738 4226 ft 2 kts 356°
2026-05-07 04:32 40.79046 -111.98737 4226 ft 2 kts 356°
2026-05-07 04:32 40.79031 -111.98736 4226 ft 1 kts 356°
2026-05-07 04:32 40.79023 -111.98736 4226 ft 1 kts 43°
2026-05-07 04:33 40.79020 -111.98743 4226 ft 0 kts 89°
2026-05-07 04:33 40.79020 -111.98752 4226 ft 0 kts 86°
2026-05-07 04:36 40.79020 -111.98751 4226 ft 0 kts 86°
2026-05-07 04:38 40.79021 -111.98743 4226 ft 1 kts 87°
2026-05-07 04:38 40.79020 -111.98730 4226 ft 1 kts 92°
2026-05-07 04:38 40.79020 -111.98716 4226 ft 2 kts 94°
2026-05-07 04:38 40.79014 -111.98681 4226 ft 3 kts 107°
2026-05-07 04:39 40.79010 -111.98646 4226 ft 3 kts 94°
2026-05-07 04:39 40.79015 -111.98625 4226 ft 3 kts 57°
2026-05-07 04:39 40.79037 -111.98614 4226 ft 4 kts 352°
2026-05-07 04:39 40.79068 -111.98621 4226 ft 4 kts 347°
2026-05-07 04:40 40.79095 -111.98611 4227 ft 4 kts 39°
2026-05-07 04:40 40.79129 -111.98588 4226 ft 6 kts 31°
2026-05-07 04:40 40.79161 -111.98498 4224 ft 10 kts 85°
2026-05-07 04:40 40.79165 -111.98434 4224 ft 10 kts 85°
2026-05-07 04:41 40.79171 -111.98332 4224 ft 11 kts 85°
2026-05-07 04:41 40.79177 -111.98227 4224 ft 11 kts 86°
2026-05-07 04:41 40.79184 -111.98080 4224 ft 12 kts 86°
2026-05-07 04:41 40.79187 -111.98006 4224 ft 12 kts 87°
2026-05-07 04:42 40.79196 -111.97890 4224 ft 12 kts 82°
2026-05-07 04:42 40.79227 -111.97751 4226 ft 10 kts 37°
2026-05-07 04:42 40.79276 -111.97741 4226 ft 11 kts
2026-05-07 04:42 40.79379 -111.97752 4227 ft 10 kts 353°
2026-05-07 04:43 40.79429 -111.97760 4227 ft 10 kts 353°
2026-05-07 04:43 40.79504 -111.97770 4227 ft 11 kts 355°
2026-05-07 04:43 40.79599 -111.97779 4227 ft 16 kts 355°
2026-05-07 04:43 40.79760 -111.97799 4227 ft 17 kts 354°
2026-05-07 04:44 40.79876 -111.97813 4229 ft 16 kts 355°
2026-05-07 04:44 40.79950 -111.97822 4230 ft 15 kts 355°
2026-05-07 04:44 40.80082 -111.97835 4232 ft 13 kts 355°
2026-05-07 04:44 40.80177 -111.97844 4233 ft 15 kts 356°
2026-05-07 04:45 40.80259 -111.97848 4233 ft 17 kts
2026-05-07 04:45 40.80419 -111.97825 4232 ft 18 kts 355°
2026-05-07 04:45 40.80505 -111.97834 4230 ft 18 kts 355°
2026-05-07 04:45 40.80607 -111.97840 4230 ft 11 kts 16°
2026-05-07 04:46 40.80626 -111.97817 4231 ft 0 kts 73°
2026-05-07 04:46 40.80628 -111.97804 4231 ft 2 kts 77°
2026-05-07 04:46 40.80631 -111.97784 4231 ft 4 kts 79°
2026-05-07 04:47 40.80627 -111.97702 4231 ft 9 kts 121°
2026-05-07 04:47 40.80567 -111.97677 4232 ft 2 kts 172°
2026-05-07 04:47 40.80567 -111.97676 4232 ft 0 kts 172°
2026-05-07 04:48 40.80468 -111.97662 4234 ft 47 kts 175°
2026-05-07 04:48 40.79892 -111.97594 4231 ft 117 kts 175°
2026-05-07 04:48 40.78876 -111.97478 4229 ft 173 kts 174°
2026-05-07 04:49 40.77610 -111.97327 4652 ft 187 kts 174°
2026-05-07 04:49 40.76324 -111.97179 5390 ft 187 kts 178°
2026-05-07 04:49 40.75103 -111.97563 6129 ft 184 kts 213°
2026-05-07 04:49 40.74173 -111.99491 6597 ft 203 kts 263°
2026-05-07 04:50 40.74246 -112.00739 6800 ft 214 kts 286°
2026-05-07 04:50 40.75279 -112.03133 7241 ft 238 kts 304°
2026-05-07 04:50 40.75937 -112.04355 7411 ft 253 kts 305°
2026-05-07 04:50 40.77000 -112.06289 7783 ft 270 kts 306°
2026-05-07 04:51 40.78121 -112.08337 8376 ft 277 kts 306°
2026-05-07 04:51 40.79238 -112.10401 9184 ft 277 kts 306°
2026-05-07 04:51 40.80327 -112.12450 10007 ft 275 kts 306°
2026-05-07 04:51 40.81420 -112.14542 10645 ft 281 kts 306°
2026-05-07 04:52 40.82541 -112.16703 11023 ft 294 kts 306°
2026-05-07 04:52 40.83698 -112.18942 11703 ft 298 kts 306°
2026-05-07 04:52 40.85239 -112.21943 12667 ft 300 kts 306°
2026-05-07 04:52 40.86023 -112.23474 13137 ft 302 kts 307°
2026-05-07 04:53 40.87458 -112.25441 13754 ft 302 kts 329°
2026-05-07 04:53 40.89451 -112.26308 14424 ft 304 kts 353°
2026-05-07 04:53 40.92239 -112.25811 15285 ft 313 kts 18°
2026-05-07 04:53 40.94076 -112.24264 15909 ft 323 kts 39°
2026-05-07 04:54 40.95036 -112.22697 16322 ft 332 kts 54°
2026-05-07 04:54 40.95893 -112.18697 16827 ft 362 kts 85°
2026-05-07 04:54 40.95780 -112.16452 17021 ft 373 kts 90°
2026-05-07 04:54 40.95536 -112.12985 17265 ft 386 kts 90°
2026-05-07 04:55 40.95216 -112.08217 17558 ft 402 kts 90°
2026-05-07 04:55 40.95058 -112.05753 17710 ft 410 kts 90°
2026-05-07 04:55 40.94820 -112.01968 18012 ft 418 kts 90°
2026-05-07 04:55 40.94583 -111.98134 18679 ft 415 kts 90°
2026-05-07 04:56 40.94350 -111.94401 19614 ft 405 kts 90°
2026-05-07 04:56 40.94049 -111.89559 20842 ft 392 kts 89°
2026-05-07 04:56 40.93903 -111.87183 21431 ft 386 kts 89°
2026-05-07 04:56 40.93614 -111.82465 22240 ft 385 kts 89°
2026-05-07 04:57 40.93402 -111.78956 22683 ft 388 kts 89°
2026-05-07 04:57 40.93184 -111.75368 23136 ft 391 kts 89°
2026-05-07 04:57 40.92966 -111.71812 23553 ft 395 kts 89°
2026-05-07 04:57 40.92817 -111.69408 23846 ft 396 kts 89°
2026-05-07 04:58 40.92590 -111.65758 24313 ft 398 kts 89°
2026-05-07 04:58 40.92284 -111.60908 24912 ft 401 kts 89°
2026-05-07 04:58 40.92054 -111.57251 25307 ft 403 kts 89°
2026-05-07 04:58 40.91820 -111.53576 25707 ft 406 kts 89°
2026-05-07 04:59 40.91662 -111.51091 25973 ft 407 kts 89°
2026-05-07 04:59 40.91341 -111.46104 26472 ft 411 kts 89°
2026-05-07 04:59 40.91178 -111.43607 26759 ft 411 kts 89°
2026-05-07 04:59 40.90906 -111.39863 27171 ft 414 kts 90°
2026-05-07 05:00 40.90354 -111.34837 27643 ft 419 kts 93°
2026-05-07 05:00 40.90056 -111.32304 27851 ft 421 kts 93°
2026-05-07 05:00 40.89445 -111.27180 28310 ft 424 kts 93°
2026-05-07 05:00 40.89144 -111.24659 28545 ft 425 kts 93°
2026-05-07 05:01 40.88685 -111.20808 28873 ft 427 kts 93°
2026-05-07 05:01 40.88221 -111.16924 29207 ft 430 kts 93°
2026-05-07 05:01 40.87598 -111.11716 29669 ft 432 kts 93°
2026-05-07 05:01 40.87131 -111.07822 29994 ft 434 kts 93°
2026-05-07 05:02 40.86811 -111.05160 30203 ft 436 kts 93°
2026-05-07 05:02 40.86338 -111.01238 30513 ft 438 kts 93°
2026-05-07 05:02 40.85864 -110.97299 30816 ft 440 kts 93°
2026-05-07 05:02 40.85213 -110.91931 31239 ft 442 kts 92°
2026-05-07 05:03 40.84892 -110.89287 31487 ft 442 kts 92°
2026-05-07 05:03 40.84240 -110.83927 31920 ft 444 kts 92°
2026-05-07 05:03 40.83918 -110.81297 32108 ft 446 kts 92°
2026-05-07 05:03 40.83423 -110.77248 32381 ft 448 kts 93°
2026-05-07 05:04 40.82761 -110.71859 32769 ft 450 kts 92°
2026-05-07 05:04 40.82426 -110.69140 32960 ft 451 kts 92°
2026-05-07 05:04 40.81917 -110.65018 33246 ft 453 kts 92°
2026-05-07 05:04 40.81246 -110.59598 33591 ft 455 kts 92°
2026-05-07 05:05 40.80729 -110.55454 33836 ft 458 kts 92°